[[{"header":{"parameterUnit":"m.s-1","parameterCategory":1,"la1":30.2992,"la2":30.254,"lo1":-89.0895,"lo2":-89.0443,"dy":0.0025,"dx":0.0025,"nx":19,"ny":19,"refTime":"2026-04-19T21:00:00:Z","depth":0,"parameterNumber":2,"parameterNumberName":"U-component_of_WINDS"},"data":[0,0,0,-6.0705,-6.0709,-6.0867,-6.0868,-6.114,-6.1143,0,0,0,0,0,0,0,0,0,0,0,-6.0701,-6.0704,-6.0704,-6.0709,-6.0867,-6.0868,-6.1139,-6.1143,0,0,0,0,0,0,0,0,0,0,0,-6.0699,-6.0703,-6.0707,-6.071,-6.0867,-6.0868,-6.1139,-6.0994,0,0,0,0,0,0,0,0,0,0,-6.0829,-6.0867,-6.0702,-6.0707,-6.0711,-6.0867,-6.0868,-6.0986,-6.1003,-6.1098,0,-6.1195,0,-6.1174,-6.1166,-6.1167,0,0,0,-6.0677,-6.0853,-6.0857,-6.0708,-6.0713,-6.0867,-6.0787,-6.0995,-6.1015,-6.1122,-6.1198,-6.1206,-6.1178,-6.1168,-6.117,-6.1828,-6.1833,0,0,-6.0668,-6.0752,-6.0844,-6.0872,-6.0852,-6.0782,-6.0792,-6.1006,-6.1095,-6.1199,-6.1211,-6.1183,-6.117,-6.1173,-6.1824,-6.183,0,0,0,-6.0665,-6.0748,-6.0744,-6.0863,-6.0886,-6.0788,-6.0799,-6.1085,-6.1077,-6.1214,-6.1186,-6.1172,-6.1176,-6.1819,-6.1826,-6.2138,0,0,0,-6.0658,-6.0745,-6.0742,-6.0795,-6.0883,-6.0988,-6.0875,-6.1062,-6.1083,-6.1185,-6.1172,-6.118,-6.1814,-6.1823,-6.2118,-6.2273,0,0,0,-6.0676,-6.0747,-6.0785,-6.08,-6.0871,-6.0982,-6.0985,-6.1065,-6.1069,-6.1167,-6.1181,-6.181,-6.1821,-6.2101,-6.2244,-6.2475,0,0,0,-6.0718,-6.1058,-6.0791,-6.1159,-6.087,-6.1173,-6.0983,-6.1203,-6.1325,-6.1174,-6.1814,-6.1825,-6.2095,-6.2226,-6.2457,-6.2688,-6.2791,0,0,-6.1194,-6.1118,-6.1328,-6.1093,-6.1466,-6.1142,-6.1559,-6.159,-6.1521,-6.173,-6.1745,-6.2125,-6.2242,-6.2471,-6.3328,-6.3411,0,0,0,-6.1507,-6.166,-6.174,-6.186,-6.1892,-6.1933,-6.189,-6.1902,-6.2075,-6.1646,-6.2264,-6.2332,-6.2463,-6.257,-6.264,-6.2749,-6.1877,-6.1875,-6.1874,-6.2305,-6.2199,-6.2539,-6.2454,-6.2572,-6.2525,-6.2612,-6.2619,-6.2476,-6.2624,-6.2688,-6.3221,-6.3349,-6.3401,-6.3516,-6.2796,-6.2797,-6.2798,-6.2799,-6.2996,-6.3198,-6.2999,-6.3259,-6.3145,-6.3362,-6.3329,-6.3221,-6.3407,-6.3164,-6.3274,-6.3024,-6.3495,-6.359,-6.2821,-6.2817,-6.2815,-6.2812,-6.2811,-6.3512,-6.359,-6.3597,-6.3761,-6.3898,-6.3796,-6.3985,-6.3871,-6.3766,-6.3875,-6.3932,-6.3926,-6.3911,-6.3908,-6.391,-6.3912,-6.3914,-6.3915,-6.3916,-6.4047,-6.4044,-6.4218,-6.428,-6.4342,-6.4411,-6.4365,-6.4423,-6.4459,-6.4362,-6.4362,-6.4209,-6.3559,-6.3402,-6.3945,-6.394,-6.3936,-6.3933,-6.3931,-6.4799,-6.461,-6.4879,-6.4942,-6.5005,-6.5151,-6.5002,-6.5131,-6.5162,-6.5259,-6.5079,-6.4616,-6.4531,-6.4474,-6.4344,-6.5098,-6.5098,-6.5098,-6.5098,-6.5239,-6.5183,-6.5433,-6.5541,-6.5634,-6.5527,-6.5835,-6.5802,-6.5738,-6.5751,-6.5624,-6.5438,-6.5385,-6.5332,-6.5257,-6.5134,-6.6072,-6.6073,-6.6074,-6.5697,-6.5645,-6.5931,-6.5865,-6.5905,-6.5943,-6.623,-6.6364,-6.625,-6.6111,-6.576,-6.5719,-6.5418,-6.5325,-6.5186,-6.5071,-6.4842,0,0]},{"header":{"parameterUnit":"m.s-1","parameterCategory":1,"la1":30.2992,"la2":30.254,"lo1":-89.0895,"lo2":-89.0443,"dy":0.0025,"dx":0.0025,"nx":19,"ny":19,"refTime":"2026-04-19T21:00:00:Z","depth":0,"parameterNumber":3,"parameterNumberName":"V-component_of_WINDS"},"data":[0,0,0,-4.6142,-4.6144,-4.6227,-4.6227,-4.6347,-4.6348,0,0,0,0,0,0,0,0,0,0,0,-4.6128,-4.613,-4.6141,-4.6144,-4.6227,-4.6227,-4.6347,-4.6348,0,0,0,0,0,0,0,0,0,0,0,-4.6128,-4.6129,-4.6131,-4.6144,-4.6227,-4.6227,-4.6347,-4.6278,0,0,0,0,0,0,0,0,0,0,-4.6195,-4.6195,-4.6129,-4.6131,-4.6145,-4.6227,-4.6227,-4.6275,-4.6283,-4.6316,0,-4.6352,0,-4.6352,-4.6357,-4.6358,0,0,0,-4.6135,-4.6188,-4.6201,-4.6131,-4.6146,-4.6226,-4.6187,-4.6279,-4.6288,-4.6327,-4.6353,-4.6357,-4.6354,-4.6358,-4.6359,-4.6586,-4.6588,0,0,-4.613,-4.6149,-4.6195,-4.6207,-4.6198,-4.6184,-4.6189,-4.6284,-4.6313,-4.6354,-4.636,-4.6356,-4.6359,-4.636,-4.6585,-4.6587,0,0,0,-4.6123,-4.6146,-4.6156,-4.6202,-4.6216,-4.6187,-4.6193,-4.6309,-4.6311,-4.6361,-4.6357,-4.636,-4.6362,-4.6583,-4.6585,-4.6675,0,0,0,-4.612,-4.6142,-4.6154,-4.6166,-4.6215,-4.6264,-4.6216,-4.6304,-4.6314,-4.6357,-4.636,-4.6363,-4.6581,-4.6584,-4.6669,-4.6715,0,0,0,-4.6119,-4.6142,-4.6158,-4.6167,-4.6204,-4.6262,-4.6269,-4.6306,-4.6313,-4.6358,-4.6363,-4.658,-4.6584,-4.6664,-4.6706,-4.6778,0,0,0,-4.6123,-4.6238,-4.6159,-4.6286,-4.6203,-4.6318,-4.6268,-4.6353,-4.6403,-4.6361,-4.6582,-4.6585,-4.6663,-4.6701,-4.6773,-4.6842,-4.6873,0,0,-4.6278,-4.6257,-4.6329,-4.6262,-4.6396,-4.6304,-4.645,-4.6478,-4.6465,-4.6546,-4.6551,-4.6671,-4.6705,-4.6777,-4.7042,-4.7067,0,0,0,-4.6385,-4.6437,-4.6468,-4.6517,-4.6541,-4.6564,-4.6568,-4.6578,-4.6645,-4.6511,-4.6717,-4.6737,-4.6778,-4.681,-4.6831,-4.6865,-4.6601,-4.6601,-4.6601,-4.663,-4.6607,-4.6724,-4.6711,-4.6758,-4.676,-4.6795,-4.6808,-4.6771,-4.682,-4.6844,-4.7008,-4.7046,-4.7062,-4.7097,-4.6879,-4.688,-4.688,-4.688,-4.6853,-4.6923,-4.687,-4.6965,-4.6938,-4.7017,-4.7021,-4.6992,-4.706,-4.6989,-4.7024,-4.6946,-4.709,-4.7119,-4.6887,-4.6886,-4.6885,-4.6884,-4.6884,-4.7011,-4.704,-4.705,-4.7115,-4.7168,-4.7149,-4.7216,-4.719,-4.7166,-4.7201,-4.7221,-4.722,-4.7213,-4.7212,-4.7213,-4.7214,-4.7214,-4.7215,-4.7215,-4.717,-4.7178,-4.7238,-4.7272,-4.7297,-4.7328,-4.7329,-4.7353,-4.7373,-4.7348,-4.7348,-4.7305,-4.7109,-4.7059,-4.7224,-4.7222,-4.7221,-4.722,-4.722,-4.7403,-4.7345,-4.7439,-4.7465,-4.75,-4.7552,-4.7517,-4.7568,-4.7585,-4.7618,-4.7567,-4.7426,-4.7403,-4.7386,-4.7344,-4.7573,-4.7573,-4.7573,-4.7573,-4.7535,-4.752,-4.7608,-4.7651,-4.7689,-4.7667,-4.777,-4.777,-4.7761,-4.7769,-4.7732,-4.7675,-4.7659,-4.7645,-4.7622,-4.7583,-4.7867,-4.7867,-4.7867,-4.7675,-4.7663,-4.7757,-4.7748,-4.7772,-4.7793,-4.7888,-4.7937,-4.7915,-4.7879,-4.7774,-4.7761,-4.7669,-4.7641,-4.7602,-4.7567,-4.7495,0,0]}]]